This is the latest recevied weather packets stored in our database for station/object K7AEL. If no packets are shown the sender has not sent any weather packets the latest 10 day(s).
| Time | Temp. | Humidity | Pressure | Rain* | Wind** | Luminosity | Snow |
|---|---|---|---|---|---|---|---|
| 1777713691 | 18.33° C | 33% | 1013.7 hPa | 0 mm | - | 0 W/m² | - |
| 1777713388 | 18.33° C | 32% | 1013.6 hPa | 0 mm | - | 0 W/m² | - |
| 1777713085 | 18.89° C | 32% | 1013.8 hPa | 0 mm | - | 0 W/m² | - |
| 1777712782 | 18.33° C | 32% | 1013.8 hPa | 0 mm | - | 0 W/m² | - |
| 1777712479 | 18.33° C | 32% | 1013.8 hPa | 0 mm | - | 0 W/m² | - |
| 1777712175 | 18.89° C | 32% | 1013.8 hPa | 0 mm | - | 0 W/m² | - |
| 1777711872 | 18.89° C | 32% | 1013.8 hPa | 0 mm | - | 0 W/m² | - |
| 1777711569 | 18.89° C | 31% | 1013.8 hPa | 0 mm | - | 0 W/m² | - |
| 1777711263 | 19.44° C | 31% | 1013.8 hPa | 0 mm | - | 0 W/m² | - |
| 1777710961 | 20° C | 29% | 1013.7 hPa | 0 mm | - | 0 W/m² | - |
| 1777710658 | 20° C | 28% | 1013.7 hPa | 0 mm | - | 0 W/m² | - |
| 1777710355 | 20.56° C | 28% | 1013.9 hPa | 0 mm | - | 0 W/m² | - |
| 1777710052 | 20.56° C | 28% | 1013.8 hPa | 0 mm | - | 0 W/m² | - |
| 1777709749 | 20° C | 28% | 1013.7 hPa | 0 mm | - | 0 W/m² | - |
| 1777709446 | 20° C | 29% | 1013.9 hPa | 0 mm | - | 0 W/m² | - |
| 1777709144 | 20° C | 29% | 1013.9 hPa | 0 mm | - | 0 W/m² | - |
| 1777708841 | 20° C | 29% | 1013.9 hPa | 0 mm | - | 0 W/m² | - |
| 1777708538 | 20° C | 29% | 1013.8 hPa | 0 mm | - | 0 W/m² | - |
| 1777708237 | 19.44° C | 30% | 1014 hPa | 0 mm | - | 0 W/m² | - |
| 1777707934 | 19.44° C | 30% | 1013.9 hPa | 0 mm | - | 0 W/m² | - |
| 1777707630 | 19.44° C | 30% | 1014 hPa | 0 mm | - | 0 W/m² | - |
| 1777707326 | 18.89° C | 31% | 1014 hPa | 0 mm | - | 0 W/m² | - |
| 1777707024 | 18.89° C | 32% | 1014 hPa | 0 mm | - | 0 W/m² | - |
| 1777706721 | 19.44° C | 32% | 1014.1 hPa | 0 mm | - | 0 W/m² | - |
| 1777706419 | 18.89° C | 31% | 1013.8 hPa | 0 mm | - | 0 W/m² | - |
* Rain latest hour (hover to see other rain measurements)
** Current wind speed in m/s (hover to see current wind gust speed)